loading
|

STARLINK-32153, 60330

Orbit data source: Space-Track

STARLINK-32153, 60330 is a payload satellite owned by SpaceX/Seattle (US) in LEO that was launched on Fri, 02 Aug 2024 UTC via an FALCON 9 launch vehicle from the Air Force Eastern Test Range (AFETR). Payloads include a variety of satellites, spacecraft, and rockets equipped with specific instruments for various scientific and technological missions. These include communications satellites like Starlink; space stations such as the ISS; scientific satellites like the Hubble; Earth observation satellites from companies like Planet Labs, Umbra, and HawkEye 360; GPS; miniature CubeSats for education and research; and military/defense satellites.

Loading next visibility...
Loading greatness...
STARLINK-32153 details
Identifier
60330, 2024-136B
Orbit
LEO
Last TLE update6 hours ago
Origin
Flag of USSpaceX/Seattle (US)
ManufacturerSpaceX/Seattle
Mission statusOperational
MissionUnknown
Bus & MotorSTARLINK V2M, Unknown motor
Mass750 kg wet, ~700 kg dry
Launch date (UTC)
2024-08-02 (2 months ago)
Launch vehicle
FALCON 9
Launch site
Air Force Eastern Test Range (AFETR)
Object type
Payload
Rocket body
Debris
Radar Cross SectionLarge (>1 m²)

Expand to show TLE details & history

TLE from 6 hours ago
0 STARLINK-32153
1 60330U 24136B   24261.61760271 -.00240621  00000-0 -59625-2 0  9999
2 60330  53.1621  55.6380 0005643 211.5855 148.4812 15.40759941  7273
Epoch: 2024-09-17T14:49Z
Definitive object data (Epoch: 2024-09-17T14:49:20.874Z)
Latitude-0.00004°
Longitude-163.72869°
Altitude448.052 km
Speed7.643 km/s
True Right ascension03h 42m 33s
True Declination0° 00' 00"
Sunlit
Object was in full shadow at TLE epoch
Predictive object data (real-time)
Latitude9.0203°
Longitude-158.17132°
Altitude448.032 km
Speed7.643 km/s
Apparent Right ascension03h 10m 16s
Apparent Declination-15° 02' 49"
Sunlit
Object is in full shadow
Predictive observer data (real-time)
Local Sidereal Time13:54:35
Azimuth321.026° NNW
Elevation-60.14°
Doppler factor1
Orbital elements
Apogee447.972 km
Perigee440.273 km
Semi-major axis6,822.259 km
Eccentricity0.0005643
Inclination53.1621°
RAAN55.638°
Arg. of periapsis211.5855°
True anomaly148.51498°
Mean anomaly148.4812°
Eccentric anomaly148.49809°
Mean motion3.85169 °/min
BSTAR-0.0059625
Period93.47 mins
No data available

STARLINK-32153 Visibility forecast

Observer location: 39.9160978°, -105.1181434

STARLINK-32153 is not visible in the next 10 days
Span
Click to sort rows by Start time (UTC) header in descending order
Start Az.
Max El. time (UTC)
Max El. Az.
Max El.
End time (UTC)
End Az.